Hot Springs, VA

6:55 AM EST on February 22, 2017 (GMT -0500)
Ingalls

Weather History for KHSP - December, 2013

Change the Weather History Date:

Friday, December 27, 2013

  Actual Average Record
Temperature  
Mean Temperature 30 °F -  
Max Temperature 37 °F 33 °F 68 °F (2015)
Min Temperature 23 °F 20 °F 8 °F (2004)
Degree Days  
Heating Degree Days 35    
Moisture  
Dew Point 13 °F    
Average Humidity 50    
Maximum Humidity 68    
Minimum Humidity 30    
Precipitation  
Precipitation 0.00 in - - ()
Sea Level Pressure  
Sea Level Pressure 30.32 in    
Wind  
Wind Speed 11 mph (West)    
Max Wind Speed 16 mph    
Max Gust Speed 22 mph    
Visibility 10 miles    
Events      
Averages and records for this station are not official NWS values.
T = Trace of Precipitation, MM = Missing Value Source: NWS Daily Summary

Daily Weather History Graph

Daily Weather History Graph

Search for Another Location

Airport or City:

Trip Planner

Search our weather history database for the weather conditions in past years. The results will help you decide how hot, cold, wet, or windy it might be!

Date:

Astronomy

Dec. 27, 2013 Rise Set
Actual Time 7:34 AM EST 5:07 PM EST
Civil Twilight 7:04 AM EST 5:36 PM EST
Nautical Twilight 6:31 AM EST 6:09 PM EST
Astronomical Twilight 5:59 AM EST 6:41 PM EST
Moon 2:07 AM EST (12/27) 1:13 PM EST (12/27)
Length of Visible Light 10h 31m
Length of Day
9h 32m
Waning Crescent, 28% of the Moon is Illuminated
Dec 27
Waning Crescent
Jan 1
New
Jan 7
First Quarter
Jan 15
Full
Jan 24
Last Quarter

Hourly Weather History & Observations

Time (EST) Temp. Windchill Dew Point Humidity Pressure Visibility Wind Dir Wind Speed Gust Speed Precip Events Conditions
12:15 AM 24.8 °F 14.6 °F 14.0 °F 64% 30.29 in 10.0 mi WNW 10.4 mph - N/A   Clear
12:35 AM 24.8 °F 14.0 °F 14.0 °F 64% 30.28 in 10.0 mi West 11.5 mph - N/A   Clear
12:55 AM 24.8 °F 14.0 °F 14.0 °F 64% 30.28 in 10.0 mi West 11.5 mph - N/A   Clear
1:15 AM 24.8 °F 14.6 °F 14.0 °F 64% 30.28 in 10.0 mi WNW 10.4 mph - N/A   Clear
1:35 AM 24.8 °F 15.3 °F 14.0 °F 64% 30.28 in 10.0 mi West 9.2 mph - N/A   Clear
1:55 AM 24.8 °F 15.3 °F 14.0 °F 64% 30.28 in 10.0 mi West 9.2 mph - N/A   Clear
2:15 AM 24.8 °F 14.6 °F 14.0 °F 64% 30.29 in 10.0 mi WNW 10.4 mph - N/A   Clear
2:35 AM 24.8 °F 14.6 °F 14.0 °F 64% 30.29 in 10.0 mi West 10.4 mph - N/A   Clear
2:55 AM 24.8 °F 14.0 °F 14.0 °F 64% 30.29 in 10.0 mi West 11.5 mph - N/A   Clear
3:15 AM 24.8 °F 15.3 °F 14.0 °F 64% 30.30 in 10.0 mi West 9.2 mph - N/A   Clear
3:35 AM 24.8 °F 15.3 °F 12.2 °F 59% 30.30 in 10.0 mi West 9.2 mph - N/A   Clear
3:55 AM 23.0 °F 12.4 °F 14.0 °F 68% 30.30 in 10.0 mi West 10.4 mph - N/A   Clear
4:15 AM 24.8 °F 14.0 °F 14.0 °F 64% 30.29 in 10.0 mi West 11.5 mph - N/A   Clear
4:35 AM 23.0 °F 12.4 °F 14.0 °F 68% 30.29 in 10.0 mi West 10.4 mph - N/A   Clear
4:55 AM 24.8 °F 14.6 °F 14.0 °F 64% 30.29 in 10.0 mi West 10.4 mph - N/A   Clear
5:15 AM 24.8 °F 14.6 °F 14.0 °F 64% 30.30 in 10.0 mi West 10.4 mph - N/A   Clear
5:35 AM 24.8 °F 15.3 °F 14.0 °F 64% 30.30 in 10.0 mi West 9.2 mph - N/A   Clear
5:55 AM 24.8 °F 14.6 °F 14.0 °F 64% 30.30 in 10.0 mi West 10.4 mph - N/A   Clear
6:15 AM 24.8 °F 14.0 °F 14.0 °F 64% 30.30 in 10.0 mi West 11.5 mph - N/A   Clear
6:35 AM 24.8 °F 13.4 °F 12.2 °F 59% 30.31 in 10.0 mi West 12.7 mph - N/A   Clear
6:55 AM 24.8 °F 14.0 °F 14.0 °F 64% 30.31 in 10.0 mi West 11.5 mph - N/A   Clear
7:15 AM 24.8 °F 14.6 °F 14.0 °F 64% 30.32 in 10.0 mi West 10.4 mph - N/A   Clear
7:35 AM 24.8 °F 14.0 °F 12.2 °F 59% 30.33 in 10.0 mi West 11.5 mph - N/A   Clear
7:55 AM 24.8 °F 14.6 °F 12.2 °F 59% 30.33 in 10.0 mi West 10.4 mph - N/A   Clear
8:15 AM 26.6 °F 16.2 °F 10.4 °F 51% 30.33 in 10.0 mi West 11.5 mph - N/A   Clear
8:35 AM 26.6 °F 16.8 °F 6.8 °F 43% 30.34 in 10.0 mi West 10.4 mph - N/A   Clear
8:55 AM 28.4 °F 19.7 °F 6.8 °F 40% 30.34 in 10.0 mi West 9.2 mph - N/A   Clear
9:15 AM 28.4 °F 19.7 °F 8.6 °F 43% 30.35 in 10.0 mi West 9.2 mph - N/A   Clear
9:35 AM 30.2 °F 21.9 °F 6.8 °F 37% 30.36 in 10.0 mi West 9.2 mph - N/A   Clear
9:55 AM 30.2 °F 21.9 °F 6.8 °F 37% 30.36 in 10.0 mi West 9.2 mph - N/A   Clear
10:15 AM 32.0 °F 23.6 °F 3.2 °F 30% 30.37 in 10.0 mi West 10.4 mph - N/A   Clear
10:35 AM 32.0 °F 23.0 °F 5.0 °F 32% 30.37 in 10.0 mi West 11.5 mph 18.4 mph N/A   Clear
10:55 AM 33.8 °F 25.3 °F 6.8 °F 32% 30.37 in 10.0 mi West 11.5 mph - N/A   Clear
11:15 AM 33.8 °F 26.4 °F 8.6 °F 35% 30.37 in 10.0 mi West 9.2 mph - N/A   Clear
11:35 AM 33.8 °F 27.0 °F 10.4 °F 38% 30.36 in 10.0 mi West 8.1 mph - N/A   Clear
11:55 AM 33.8 °F 25.8 °F 10.4 °F 38% 30.35 in 10.0 mi West 10.4 mph - N/A   Clear
12:15 PM 35.6 °F 27.5 °F 12.2 °F 38% 30.34 in 10.0 mi West 11.5 mph 17.3 mph N/A   Clear
12:35 PM 35.6 °F 26.2 °F 12.2 °F 38% 30.34 in 10.0 mi West 15.0 mph 18.4 mph N/A   Clear
12:55 PM 35.6 °F 26.2 °F 12.2 °F 38% 30.33 in 10.0 mi West 15.0 mph 21.9 mph N/A   Clear
1:15 PM 37.4 °F 28.9 °F 14.0 °F 38% 30.32 in 10.0 mi West 13.8 mph 19.6 mph N/A   Clear
1:35 PM 37.4 °F 28.5 °F 14.0 °F 38% 30.32 in 10.0 mi West 15.0 mph - N/A   Clear
1:55 PM 37.4 °F 28.9 °F 14.0 °F 38% 30.31 in 10.0 mi West 13.8 mph - N/A   Clear
2:15 PM 37.4 °F 28.2 °F 14.0 °F 38% 30.31 in 10.0 mi WNW 16.1 mph 21.9 mph N/A   Clear
2:35 PM 37.4 °F 29.8 °F 15.8 °F 41% 30.31 in 10.0 mi West 11.5 mph - N/A   Clear
2:55 PM 37.4 °F 29.8 °F 15.8 °F 41% 30.30 in 10.0 mi West 11.5 mph 16.1 mph N/A   Clear
3:15 PM 37.4 °F 30.3 °F 15.8 °F 41% 30.30 in 10.0 mi West 10.4 mph - N/A   Clear
3:35 PM 37.4 °F 30.3 °F 15.8 °F 41% 30.30 in 10.0 mi West 10.4 mph - N/A   Clear
3:55 PM 37.4 °F 29.8 °F 15.8 °F 41% 30.30 in 10.0 mi West 11.5 mph 17.3 mph N/A   Clear
4:15 PM 37.4 °F 29.8 °F 15.8 °F 41% 30.31 in 10.0 mi West 11.5 mph - N/A   Clear
4:35 PM 37.4 °F 29.3 °F 15.8 °F 41% 30.30 in 10.0 mi West 12.7 mph 16.1 mph N/A   Clear
5:15 PM 35.6 °F 28.6 °F 15.8 °F 44% 30.31 in 10.0 mi West 9.2 mph - N/A   Clear
5:35 PM 33.8 °F 25.8 °F 15.8 °F 48% 30.31 in 10.0 mi WSW 10.4 mph - N/A   Clear
5:55 PM 33.8 °F 25.3 °F 15.8 °F 48% 30.32 in 10.0 mi West 11.5 mph 17.3 mph N/A   Clear
6:15 PM 33.8 °F 24.8 °F 15.8 °F 48% 30.32 in 10.0 mi West 12.7 mph - N/A   Clear
6:35 PM 33.8 °F 23.9 °F 15.8 °F 48% 30.32 in 10.0 mi West 15.0 mph - N/A   Clear
6:55 PM 33.8 °F 24.3 °F 15.8 °F 48% 30.32 in 10.0 mi West 13.8 mph - N/A   Clear
7:15 PM 33.8 °F 24.3 °F 15.8 °F 48% 30.32 in 10.0 mi West 13.8 mph 18.4 mph N/A   Unknown
7:35 PM 33.8 °F 24.8 °F 15.8 °F 48% 30.33 in 10.0 mi West 12.7 mph 19.6 mph N/A   Clear
7:55 PM 33.8 °F 24.3 °F 15.8 °F 48% 30.32 in 10.0 mi West 13.8 mph 18.4 mph N/A   Clear
8:15 PM 33.8 °F 24.3 °F 15.8 °F 48% 30.32 in 10.0 mi West 13.8 mph - N/A   Clear
8:35 PM 33.8 °F 25.3 °F 14.0 °F 44% 30.32 in 10.0 mi West 11.5 mph - N/A   Clear
8:55 PM 33.8 °F 25.3 °F 15.8 °F 48% 30.32 in 10.0 mi West 11.5 mph - N/A   Clear
9:35 PM 32.0 °F 23.0 °F 15.8 °F 51% 30.32 in 10.0 mi West 11.5 mph - N/A   Clear
9:55 PM 32.0 °F 23.0 °F 15.8 °F 51% 30.33 in 10.0 mi West 11.5 mph - N/A   Clear
10:15 PM 32.0 °F 22.5 °F 15.8 °F 51% 30.32 in 10.0 mi West 12.7 mph - N/A   Clear
10:35 PM 32.0 °F 21.6 °F 15.8 °F 51% 30.33 in 10.0 mi West 15.0 mph - N/A   Clear
11:15 PM 32.0 °F 22.1 °F 15.8 °F 51% 30.32 in 10.0 mi West 13.8 mph - N/A   Clear
11:35 PM 32.0 °F 21.6 °F 15.8 °F 51% 30.33 in 10.0 mi West 15.0 mph - N/A   Clear
11:55 PM 32.0 °F 22.1 °F 15.8 °F 51% 30.33 in 10.0 mi West 13.8 mph - N/A   Clear